Change the Weather History Date:

Thursday, March 21, 2013

  Actual Average Record
Temperature  
Mean Temperature 22 °F -  
Max Temperature 32 °F 42 °F 82 °F (2012)
Min Temperature 12 °F 24 °F -5 °F (1965)
Degree Days  
Heating Degree Days 43    
Moisture  
Dew Point 8 °F    
Average Humidity 57    
Maximum Humidity 73    
Minimum Humidity 40    
Precipitation  
Precipitation 0.00 in - - ()
Sea Level Pressure  
Sea Level Pressure 30.00 in    
Wind  
Wind Speed 8 mph (WNW)    
Max Wind Speed 12 mph    
Max Gust Speed 20 mph    
Visibility 10 miles    
Events      
Averages and records for this station are not official NWS values.
T = Trace of Precipitation, MM = Missing Value Source: NWS Daily Summary

Daily Weather History Graph

Daily Weather History Graph

Search for Another Location

Airport or City:

Trip Planner

Search our weather history database for the weather conditions in past years. The results will help you decide how hot, cold, wet, or windy it might be!

Date:

Astronomy

Mar. 21, 2013 Rise Set
Actual Time 6:56 AM CDT 7:10 PM CDT
Civil Twilight 6:27 AM CDT 7:39 PM CDT
Nautical Twilight 5:53 AM CDT 8:13 PM CDT
Astronomical Twilight 5:19 AM CDT 8:48 PM CDT
Moon 1:29 PM CDT (3/21) 3:29 AM CDT (3/21)
Length of Visible Light 13h 11m
Length of Day
12h 13m
Waxing Gibbous, 69% of the Moon is Illuminated
Mar 21
Waxing Gibbous
Mar 27
Full
Apr 2
Last Quarter
Apr 10
New
Apr 18
First Quarter

Hourly Weather History & Observations

Time (CDT) Temp. Windchill Dew Point Humidity Pressure Visibility Wind Dir Wind Speed Gust Speed Precip Events Conditions
12:15 AM 15.8 °F 6.1 °F 3.2 °F 58% 30.03 in 10.0 mi West 6.9 mph - N/A   Overcast
12:35 AM 14.0 °F 2.9 °F 3.2 °F 62% 30.03 in 10.0 mi West 8.1 mph - N/A   Overcast
12:55 AM 14.0 °F 2.9 °F 3.2 °F 62% 30.03 in 10.0 mi West 8.1 mph - N/A   Scattered Clouds
1:15 AM 14.0 °F 2.9 °F 3.2 °F 62% 30.02 in 10.0 mi West 8.1 mph - N/A   Clear
1:35 AM 12.2 °F 0.7 °F 3.2 °F 67% 30.02 in 10.0 mi West 8.1 mph - N/A   Clear
1:55 AM 14.0 °F 5.1 °F 3.2 °F 62% 30.02 in 10.0 mi WNW 5.8 mph - N/A   Clear
2:15 AM 12.2 °F 1.7 °F 3.2 °F 67% 30.02 in 10.0 mi WNW 6.9 mph - N/A   Clear
2:35 AM 12.2 °F 2.9 °F 1.4 °F 62% 30.01 in 10.0 mi WNW 5.8 mph - N/A   Clear
2:55 AM 12.2 °F 2.9 °F 1.4 °F 62% 30.01 in 10.0 mi WNW 5.8 mph - N/A   Clear
3:15 AM 12.2 °F 1.7 °F 1.4 °F 62% 30.01 in 10.0 mi WNW 6.9 mph - N/A   Clear
3:35 AM 14.0 °F 2.0 °F 3.2 °F 62% 30.01 in 10.0 mi WNW 9.2 mph - N/A   Clear
3:55 AM 14.0 °F 2.0 °F 3.2 °F 62% 30.01 in 10.0 mi NW 9.2 mph - N/A   Clear
4:15 AM 14.0 °F 1.2 °F 3.2 °F 62% 30.00 in 10.0 mi NW 10.4 mph 16.1 mph N/A   Clear
4:35 AM 14.0 °F 2.9 °F 5.0 °F 67% 30.00 in 10.0 mi WNW 8.1 mph - N/A   Clear
4:55 AM 14.0 °F 2.0 °F 5.0 °F 67% 30.00 in 10.0 mi NW 9.2 mph - N/A   Clear
5:15 AM 14.0 °F 2.0 °F 5.0 °F 67% 30.00 in 10.0 mi NW 9.2 mph - N/A   Clear
5:35 AM 14.0 °F 2.9 °F 5.0 °F 67% 30.00 in 10.0 mi WNW 8.1 mph - N/A   Clear
5:55 AM 14.0 °F 2.9 °F 5.0 °F 67% 30.00 in 10.0 mi NW 8.1 mph - N/A   Clear
6:15 AM 14.0 °F 5.1 °F 5.0 °F 67% 30.01 in 10.0 mi WNW 5.8 mph - N/A   Clear
6:35 AM 12.2 °F 2.9 °F 5.0 °F 73% 30.01 in 10.0 mi WNW 5.8 mph - N/A   Clear
6:55 AM 12.2 °F 4.3 °F 5.0 °F 73% 30.01 in 10.0 mi NW 4.6 mph - N/A   Clear
7:15 AM 12.2 °F 4.3 °F 5.0 °F 73% 30.01 in 10.0 mi WNW 4.6 mph - N/A   Clear
7:35 AM 12.2 °F 1.7 °F 5.0 °F 73% 30.01 in 10.0 mi WNW 6.9 mph - N/A   Clear
7:55 AM 14.0 °F 2.9 °F 5.0 °F 67% 30.01 in 10.0 mi WNW 8.1 mph - N/A   Clear
8:15 AM 14.0 °F 2.9 °F 5.0 °F 67% 30.01 in 10.0 mi WNW 8.1 mph - N/A   Clear
8:35 AM 17.6 °F 7.3 °F 6.8 °F 63% 30.01 in 10.0 mi WNW 8.1 mph - N/A   Clear
8:55 AM 17.6 °F 6.4 °F 6.8 °F 63% 30.01 in 10.0 mi NW 9.2 mph - N/A   Clear
9:15 AM 19.4 °F 8.6 °F 8.6 °F 63% 30.01 in 10.0 mi WNW 9.2 mph - N/A   Clear
9:35 AM 21.2 °F 11.7 °F 8.6 °F 58% 30.02 in 10.0 mi NW 8.1 mph - N/A   Clear
9:55 AM 21.2 °F 11.7 °F 8.6 °F 58% 30.02 in 10.0 mi NW 8.1 mph - N/A   Clear
10:15 AM 23.0 °F 13.1 °F 8.6 °F 54% 30.03 in 10.0 mi NW 9.2 mph - N/A   Scattered Clouds
10:35 AM 23.0 °F 13.9 °F 10.4 °F 59% 30.03 in 10.0 mi NW 8.1 mph - N/A   Scattered Clouds
10:55 AM 24.8 °F 14.6 °F 10.4 °F 54% 30.03 in 10.0 mi NW 10.4 mph 17.3 mph N/A   Mostly Cloudy
11:15 AM 26.6 °F 17.5 °F 10.4 °F 51% 30.03 in 10.0 mi NNW 9.2 mph - N/A   Mostly Cloudy
11:55 AM 26.6 °F 16.2 °F 10.4 °F 51% 30.03 in 10.0 mi NNW 11.5 mph - N/A   Mostly Cloudy
12:15 PM 28.4 °F 20.4 °F 10.4 °F 47% 30.02 in 10.0 mi NNW 8.1 mph - N/A   Scattered Clouds
12:35 PM 28.4 °F 19.7 °F 10.4 °F 47% 30.01 in 10.0 mi NW 9.2 mph - N/A   Clear
12:55 PM 28.4 °F 20.4 °F 10.4 °F 47% 30.01 in 10.0 mi NW 8.1 mph - N/A   Clear
1:15 PM 30.2 °F 22.6 °F 10.4 °F 44% 30.01 in 10.0 mi NW 8.1 mph - N/A   Clear
1:35 PM 30.2 °F 24.3 °F 10.4 °F 44% 30.00 in 10.0 mi West 5.8 mph - N/A   Clear
1:55 PM 30.2 °F 21.9 °F 10.4 °F 44% 30.00 in 10.0 mi West 9.2 mph - N/A   Clear
2:15 PM 30.2 °F 21.9 °F 10.4 °F 44% 29.99 in 10.0 mi NW 9.2 mph - N/A   Clear
2:35 PM 30.2 °F 22.6 °F 8.6 °F 40% 29.99 in 10.0 mi WNW 8.1 mph - N/A   Clear
2:55 PM 32.0 °F 23.6 °F 10.4 °F 41% 29.98 in 10.0 mi West 10.4 mph - N/A   Clear
3:15 PM 32.0 °F 24.2 °F 10.4 °F 41% 29.98 in 10.0 mi West 9.2 mph 19.6 mph N/A   Clear
3:35 PM 32.0 °F 23.6 °F 10.4 °F 41% 29.98 in 10.0 mi West 10.4 mph - N/A   Clear
3:55 PM 30.2 °F 20.8 °F 10.4 °F 44% 29.98 in 10.0 mi West 11.5 mph - N/A   Clear
4:15 PM 30.2 °F 23.4 °F 10.4 °F 44% 29.98 in 10.0 mi West 6.9 mph 16.1 mph N/A   Clear
4:35 PM 30.2 °F 21.3 °F 10.4 °F 44% 29.98 in 10.0 mi West 10.4 mph - N/A   Clear
4:55 PM 30.2 °F 21.3 °F 10.4 °F 44% 29.98 in 10.0 mi West 10.4 mph - N/A   Clear
5:15 PM 30.2 °F 21.9 °F 10.4 °F 44% 29.98 in 10.0 mi West 9.2 mph - N/A   Clear
5:35 PM 30.2 °F 21.3 °F 10.4 °F 44% 29.98 in 10.0 mi West 10.4 mph - N/A   Clear
5:55 PM 28.4 °F 19.7 °F 10.4 °F 47% 29.98 in 10.0 mi West 9.2 mph - N/A   Clear
6:15 PM 28.4 °F 18.5 °F 10.4 °F 47% 29.98 in 10.0 mi West 11.5 mph - N/A   Clear
6:35 PM 28.4 °F 20.4 °F 10.4 °F 47% 29.98 in 10.0 mi West 8.1 mph - N/A   Clear
6:55 PM 26.6 °F 18.2 °F 10.4 °F 51% 29.98 in 10.0 mi West 8.1 mph - N/A   Clear
7:15 PM 26.6 °F 18.2 °F 10.4 °F 51% 29.99 in 10.0 mi West 8.1 mph - N/A   Clear
7:35 PM 24.8 °F 16.9 °F 10.4 °F 54% 29.99 in 10.0 mi West 6.9 mph - N/A   Clear
7:55 PM 24.8 °F 16.9 °F 10.4 °F 54% 29.99 in 10.0 mi West 6.9 mph - N/A   Clear
8:15 PM 23.0 °F 14.7 °F 10.4 °F 59% 29.99 in 10.0 mi West 6.9 mph - N/A   Clear
8:35 PM 23.0 °F 15.8 °F 10.4 °F 59% 29.99 in 10.0 mi West 5.8 mph - N/A   Clear
8:55 PM 23.0 °F 15.8 °F 10.4 °F 59% 30.00 in 10.0 mi WNW 5.8 mph - N/A   Clear
9:15 PM 23.0 °F 15.8 °F 10.4 °F 59% 30.00 in 10.0 mi West 5.8 mph - N/A   Clear
9:35 PM 23.0 °F 15.8 °F 10.4 °F 59% 30.00 in 10.0 mi WNW 5.8 mph - N/A   Clear
9:55 PM 23.0 °F 15.8 °F 10.4 °F 59% 30.00 in 10.0 mi WNW 5.8 mph - N/A   Clear
10:15 PM 23.0 °F 17.0 °F 10.4 °F 59% 30.00 in 10.0 mi WNW 4.6 mph - N/A   Clear
10:35 PM 21.2 °F 14.9 °F 10.4 °F 63% 30.01 in 10.0 mi WNW 4.6 mph - N/A   Clear
10:55 PM 21.2 °F 14.9 °F 8.6 °F 58% 30.01 in 10.0 mi West 4.6 mph - N/A   Clear
11:15 PM 21.2 °F 13.6 °F 8.6 °F 58% 30.01 in 10.0 mi WNW 5.8 mph - N/A   Clear
11:35 PM 21.2 °F 14.9 °F 8.6 °F 58% 30.01 in 10.0 mi WNW 4.6 mph - N/A   Clear
11:55 PM 21.2 °F 13.6 °F 8.6 °F 58% 30.01 in 10.0 mi WNW 5.8 mph - N/A   Clear